Regional Weather Roundup
Issued by NWS

Home | Current Version | Previous Version | Graphics & Text | Print | Product List | Glossary Off
Versions: 1 2 3 4 5 6 7 8 9 10 11 12 13 14 15 16 17 18 19 20 21 22 23 24 25 26 27 28 29 30 31 32 33 34 35 36 37 38 39 40 41 42 43 44 45 46 47 48 49 50

000
ASUS43 KMKX 040921
RWRWI

WISCONSIN REGIONAL WEATHER ROUNDUP
NATIONAL WEATHER SERVICE MILWAUKEE/SULLIVAN WI
400 AM CDT FRI SEP 04 2015

NOTE: "FAIR" INDICATES FEW OR NO CLOUDS BELOW 12,000 FEET WITH NO
SIGNIFICANT WEATHER AND/OR OBSTRUCTIONS TO VISIBILITY.

WIZ001-002-006>008-014>016-023>028-041000-
NORTHWEST WISCONSIN

CITY           SKY/WX    TMP DP  RH WIND       PRES   REMARKS
SUPERIOR ARPT  CLEAR     57  57  99 NE8       30.00R
ASHLAND        FOG       50  50 100 CALM      30.02R VSB 1/2
HAYWARD        PTCLDY    66  63  90 SE5       30.00S
SIREN          PTCLDY    69  64  84 SE7       29.96S
CUMBERLAND     CLOUDY    66  63  88 SE5       29.99S
RICE LAKE      CLOUDY    68  64  87 E7        30.01R
CHETEK         CLOUDY    67  65  95 E7        30.00R
LADYSMITH      MOCLDY    64  62  94 SE5       30.03S
EAU CLAIRE     CLOUDY    70  64  81 E7        29.98R
MENOMONIE      CLOUDY    69  66  89 E7        29.98S
NEW RICHMOND   CLEAR     68  63  83 SE8       29.95S
OSCEOLA        CLEAR     69  65  84 SE9       29.97R
$$

WIZ003>005-009-010-017-018-041000-
NORTH CENTRAL WISCONSIN

CITY           SKY/WX    TMP DP  RH WIND       PRES   REMARKS
MANITOWISH WTR CLEAR     61  61 100 CALM      30.05S
ARBOR VITAE    CLEAR     60  59  97 CALM      30.05S
WOODRUFF       CLEAR     60  59  97 CALM      30.05S
RHINELANDER    PTCLDY    58  58 100 CALM      30.06S FOG
EAGLE RIVER    FOG       57  57 100 CALM      30.05S VSB 1
LAND O LAKES   CLEAR     55  55 100 CALM      30.07S
PHILLIPS       CLEAR     58  58 100 CALM      30.03S
TOMAHAWK       FOG       51  50  97 CALM      30.05R VSB 3/4
MEDFORD        CLEAR     61  60  99 E5        30.03S
MERRILL        FOG       55  55 100 CALM      30.05R VSB 1/4
$$

WIZ029-030-035-036-043>047-041000-
CENTRAL WISCONSIN

CITY           SKY/WX    TMP DP  RH WIND       PRES   REMARKS
WAUSAU         CLEAR     61  59  93 CALM      30.02S FOG
MOSINEE        CLEAR     61  61 100 NE5       30.04S FOG
MARSHFIELD     PTCLDY    64  61  90 E5        30.02S
STEVENS POINT  PTCLDY    56  56  99 NE7       30.02F FOG
WAUPACA        CLEAR     63  62  97 CALM      30.01S FOG
WAUTOMA        PTCLDY    65  65 100 CALM      30.02R
WISC RAPIDS    PTCLDY    65  62  90 CALM      30.02S
CAMP DOUGLAS   CLOUDY    69  69 100 E3        30.00S
$$

WIZ011>013-019>022-031-037>040-048>050-041000-
NORTHEAST WISCONSIN

CITY           SKY/WX    TMP DP  RH WIND       PRES   REMARKS
ANTIGO         CLEAR     58  58 100 NE5       30.05R
SHAWANO        NOT AVBL
OCONTO         CLEAR     62  62 100 N3        30.00S
STURGEON BAY   CLOUDY    64  63  94 CALM      30.02S VSB 1/2
GREEN BAY      CLOUDY    67  65  93 NE6       30.00R
MANITOWOC      CLOUDY    67  66  97 MISG      29.98S
APPLETON       CLOUDY    64  63  94 N6        29.99S
CLINTONVILLE   PTCLDY    61  61 100 CALM      30.01S FOG
OSHKOSH        CLOUDY    67  64  90 NE8       30.00R
$$

WIZ032>034-041-042-053>061-041000-
SOUTHWEST WISCONSIN

CITY           SKY/WX    TMP DP  RH WIND       PRES   REMARKS
LA CROSSE      MOCLDY    70  66  87 SE6       29.97S
SPARTA         CLOUDY    69  64  83 CALM      30.00R
VIROQUA          N/A     67  67 100 E6        30.00S
BOSCOBEL       CLEAR     69  67  93 CALM      29.98R
PRAIRIE DU CHI PTCLDY    71  66  84 E3        29.96S
PLATTEVILLE    CLEAR     69  69  98 E7        29.98S
$$

WIZ056-057-062-063-064-067-068-041000-
SOUTH CENTRAL WISCONSIN

CITY           SKY/WX    TMP DP  RH WIND       PRES   REMARKS
REEDSBURG      CLOUDY    69  66  90 NE5       29.99S
BARABOO/DELLS  CLOUDY    69  65  86 E6        30.00S
LONE ROCK      PTCLDY    67  64  90 CALM      29.99S
MINERAL POINT  PTCLDY    70  68  94 E5        30.00R
MADISON        CLOUDY    71  65  81 NE3       29.99S
MIDDLETON      MOCLDY    69  68  96 CALM      30.00S
WATERTOWN      CLOUDY    68  68 100 CALM      29.99S
MONROE         CLEAR     68  66  94 E3        29.99S FOG
JANESVILLE     CLEAR     68  66  94 CALM      29.98S FOG
$$

WIZ051-052-058>065-066-070>072-041000-
SOUTHEAST WISCONSIN

CITY           SKY/WX    TMP DP  RH WIND       PRES   REMARKS
MILWAUKEE      MOCLDY    68  64  87 NW3       29.98R
WAUKESHA       MOCLDY    64  63  94 CALM      30.00R
MILWAUKEE/TIMM PTCLDY    63  61  94 CALM      30.00R FOG
RACINE         MOCLDY    67  63  87 NW3       30.00R
BURLINGTON     CLOUDY    66  64  96 CALM      29.99S
KENOSHA        CLOUDY    66  64  93 NW3       29.99R
FOND DU LAC    CLOUDY    67  65  93 NE6       30.00S
SHEBOYGAN      CLOUDY    67  65  93 N5        29.98S FOG
WEST BEND      FOG       63  61  94 CALM      30.00R VSB 1/2
JUNEAU         MOCLDY    64  64  97 N3        30.01R FOG
$$

LSZ147-162-041000-
LAKE SUPERIOR

STATION/POSITION TIME  TEMP    WIND        PRES    WAVE
                       AIR SEA DIR/SP/G            HT/PER
                 (UTC) (F)     (DEG/KT/KT) (MB)    (FT/S)
W MID LAKE BUOY  0850   61 57  110/ 10/ 12 1016.4F   1
DEVILS ISLAND    0900   60     110/  4/  5 1016.3R
PORT WING        0840   54      CALM  /  1 1016.3R
SAXON HARBOR     0800   55        CALM     1015.6S
$$

LMZ867-665-643>646-041000-
LAKE MICHIGAN

STATION/POSITION TIME  TEMP    WIND        PRES    WAVE
                       AIR SEA DIR/SP/G            HT/PER
                 (UTC) (F)     (DEG/KT/KT) (MB)    (FT/S)
CHAMBERS ISLAND  0800   64      10/  5/  7 1015.9F
S GREEN BAY BUOY 0900   66 66   20/ 10/ 14 1017.1S
N MID LAKE BUOY  0850   67 66   10/  6/  8 1015.5R   1/ 3
NORTHPORT PIER   0800   66      20/  2/  4 1015.9S
SISTER BAY       0811   66      40/  4/  7   N/A
ALGOMA LAKESHORE 0814           10/  8/ 11   N/A
KEWAUNEE LAKESHO 0800   67      10/  4/  8 1014.5S
SHEBOYGAN LAKESH 0900   65     350/  9/ 10 1015.1F
PORT WASHINGTON  0800   65     320/  4/  5 1015.6
ATWATER BUOY     0900   60      CALM  /  4 1016.6R
MILWAUKEE LAKESH 0810   66      30/  4/  4   N/A
S MID LAKE BUOY  0850   68 71  330/ 10/ 14 1014.2R
KENOSHA   LAKESH 0900   68     280/  4/  6 1014.9S
$$

TC  - TEMPERATURE IN CELSIUS
VSB - VISIBILITY IN STATUTE MILES
WCI - WIND CHILL INDEX
HX  - HEAT INDEX




USA.gov is the U.S. government's official web portal to all federal, state and local government web resources and services.